This demonstration page uses our WeatherBlox Daily Observations layout. Learn more.

Hourly Observations for December 30, 2017

Temp ( °F °C ) Dew Point ( °F °C ) Humidity (%) Winds ( mph kmh ) Pressure ( in mb ) Visibility ( mi km ) Precip ( " mm )
12:54 am 00:54 Cloudy 8 -13.3 2 -16.7 76 76 N 18 30 30.55 1035 10 16.0934 0 0
1:54 am 01:54 Cloudy 8 -13.3 2 -16.7 76 76 N 16 26 30.55 1035 10 16.0934 0 0
2:36 am 02:36 Cloudy 8 -13.3 2 -16.7 76 76 N 16 26 30.62 1037 10 16.0934 0 0
2:54 am 02:54 Cloudy 8 -13.3 1 -17.2 73 73 N 17 28 30.58 1036 10 16.0934 0 0
3:54 am 03:54 Cloudy 6 -14.4 -2 -18.9 69 69 N 21 33 30.6 1036 10 16.0934 0 0
4:54 am 04:54 Cloudy 5 -15 -3 -19.4 69 69 N 23 37 30.59 1036 10 16.0934 0 0
5:54 am 05:54 Cloudy 5 -15 -2 -18.9 72 72 N 17 28 30.62 1037 10 16.0934 0 0
6:54 am 06:54 Cloudy 4 -15.6 -4 -20 69 69 NNE 16 26 30.63 1037 10 16.0934 0 0
7:54 am 07:54 Cloudy 4 -15.6 -5 -20.6 66 66 N 15 24 30.64 1038 10 16.0934 0 0
8:54 am 08:54 Cloudy 4 -15.6 -5 -20.6 66 66 N 15 24 30.66 1038 10 16.0934 0 0
9:54 am 09:54 Cloudy 4 -15.6 -4 -20 69 69 N 14 22 30.66 1038 7 11.26538 0 0
10:54 am 10:54 Cloudy 5 -15 -5 -20.6 63 63 N 13 20 30.66 1038 10 16.0934 0 0.0254
11:54 am 11:54 Cloudy 4 -15.6 -5 -20.6 66 66 N 12 19 30.64 1038 10 16.0934 0 0
12:54 pm 12:54 Cloudy 5 -15 -5 -20.6 63 63 NE 9 15 30.6 1036 10 16.0934 0 0
1:47 pm 13:47 Cloudy 4 -15.6 -5 -20.6 66 66 N 13 20 30.68 1039 9 14.48406 0 0
1:54 pm 13:54 Cloudy 5 -15 -5 -20.6 63 63 NNE 10 17 30.59 1036 10 16.0934 0 0
2:54 pm 14:54 Cloudy 4 -15.6 -6 -21.1 63 63 NNE 10 17 30.55 1034 10 16.0934 0 0
3:54 pm 15:54 Cloudy 4 -15.6 -6 -21.1 63 63 NE 10 17 30.54 1034 10 16.0934 0 0
4:54 pm 16:54 Cloudy 3 -16.1 -5 -20.6 69 69 NE 8 13 30.53 1034 10 16.0934 0 0
5:54 pm 17:54 Cloudy 3 -16.1 -4 -20 72 72 NE 8 13 30.54 1034 10 16.0934 0 0
6:54 pm 18:54 Cloudy 3 -16.1 -5 -20.6 69 69 NE 13 20 30.56 1035 10 16.0934 0 0
7:54 pm 19:54 Cloudy 3 -16.1 -5 -20.6 69 69 NNE 17 28 30.55 1035 10 16.0934 0 0
8:54 pm 20:54 Cloudy 2 -16.7 -6 -21.1 69 69 NNE 13 20 30.6 1036 10 16.0934 0 0
9:54 pm 21:54 Cloudy 2 -16.7 -6 -21.1 69 69 NNE 15 24 30.66 1038 10 16.0934 0 0
10:54 pm 22:54 Cloudy 1 -17.2 -6 -21.1 72 72 NNE 13 20 30.67 1039 10 16.0934 0 0
11:54 pm 23:54 Cloudy 0 -17.8 -7 -21.7 72 72 NNE 13 20 30.68 1039 10 16.0934 0 0

Powered by AerisWeather